Location: Chevoux
(46.3801°N, 4.9476°E)
Time: 22:57:07
(UTC+00:00)

ISS - Pass Details

Date: 28 January 2021
Orbit: 417 x 422 km, 51.6° (Epoch: 04 March)

Event Time Altitude Azimuth Distance (km) Brightness Sun altitude
Rises 19:22:58 0° 296° (WNW) 2,378 1.1 -28.3°
Reaches altitude 10° 19:25:06 10° 301° (WNW) 1,512 -0.2 -28.6°
Enters shadow 19:25:51 15° 305° (NW) 1,224 -0.8 -28.8°
